Regional Weather Roundup
Issued by NWS Wakefield, VA

Home | Current Version | Previous Version | Text Only | Print | Product List | Glossary On
Versions: 1 2 3 4 5 6 7 8 9 10 11 12 13 14 15 16 17 18 19 20 21 22 23 24 25 26 27 28
000
ASUS41 KAKQ 291615
RWRAKQ

REGIONAL WEATHER ROUNDUP
NATIONAL WEATHER SERVICE WAKEFIELD VA
1200 PM EDT WED MAR 29 2017

Note: "fair" indicates few or no clouds below 12,000 feet with no
significant weather and/or obstructions to visibility. * = Denotes
station may not report precipitation (e.g., rain,snow,etc.),
thunder or fog.

VAZ042-051-052>054-056-291700-
NORTHERN VIRGINIA

CITY           SKY/WX    TMP DP  RH WIND       PRES   REMARKS
WASH NATIONAL  MOSUNNY   61  42  49 N10       30.14S
DULLES         MOSUNNY   58  41  53 N15       30.14F
FORT BELVOIR   SUNNY     60  41  49 N6G17     30.13S
QUANTICO       MOSUNNY   62  46  55 NE12      30.13F
FREDERICKSBRG* CLOUDY    59  47  63 N5        30.12S
STAFFORD*      PTSUNNY   58  45  62 NW10      30.17S
WARRENTON      PTSUNNY   62  40  44 N9G17     30.13F
CULPEPER*      CLOUDY    61  46  57 N6        30.14S
MANASSAS*      CLOUDY   N/A N/A N/A N12       30.15S
LEESBURG*      MOSUNNY   59  45  58 N9        30.15F
WINCHESTER     MOSUNNY   55  39  54 N6        30.15F
FRONT ROYAL*   MOSUNNY   55  41  58 NW6       30.14F
LURAY*         PTSUNNY   59  45  58 NW3       30.14F
$$

VAZ048-049-060>072-079>083-291700-
CENTRAL AND SOUTH CENTRAL VIRGINIA

CITY           SKY/WX    TMP DP  RH WIND       PRES   REMARKS
RICHMOND       PTSUNNY   62  51  67 N10       30.10S
CHESTERFIELD*  NOT AVBL
PETERSBURG*    CLOUDY    63  50  63 N8        30.10S
HANOVER        CLOUDY    62  47  57 N5        30.12S
TAPPAHANNOCK*  CLOUDY    59  46  60 N5        30.12S
QUINTON*       CLOUDY    60  52  74 N6        30.10S
CHARLOTTSVILLE MOSUNNY   65  45  48 VRB5      30.11F
GORDONSVILLE*  MOSUNNY   62  46  54 NE7       30.11F
ORANGE*        PTSUNNY   61  45  55 NE8       30.14S
LOUISA*        PTSUNNY   64  50  59 N9        30.11S
BUMPASS*       PTSUNNY   62  47  58 N7        30.12S
FARMVILLE*     CLOUDY    65  52  63 NE5       30.10S
CREWE*         CLOUDY    63  50  62 NE3       30.10S
FORT PICKETT*  CLOUDY    64  45  50 NW7       30.10S
CHASE CITY*    CLOUDY    65  49  56 N5        30.10F
CLARKSVILLE*   PTSUNNY   66  52  59 E3        30.10S
SOUTH HILL*    CLOUDY    63  54  70 N5        30.15F
LAWRENCEVILLE* CLOUDY    64  52  65 CALM      30.09F
EMPORIA*       CLOUDY    63  52  67 NE5       30.11S
$$

VAZ088>098-291700-
SOUTHEAST VIRGINIA

CITY           SKY/WX    TMP DP  RH WIND       PRES   REMARKS
NORFOLK        PTSUNNY   59  49  69 N13       30.10R
VIRGINIA BEACH PTSUNNY   58  48  69 NE9       30.09R
NORFOLK NAVAL  PTSUNNY   59  49  69 N10       30.12R
WEST POINT*    PTSUNNY   61  48  61 N5        30.12S
SALUDA*        PTSUNNY   58  49  70 N7        30.11R
NEWPORT NEWS   CLOUDY    58  51  78 NE7       30.10S
LANGLEY AFB    CLOUDY    57  51  79 NE14      30.10R
FORT EUSTIS    PTSUNNY   62  51  68 E7        30.07S
WILLIAMSBURG*  MOSUNNY   64  54  68 CALM      30.10F
HR EXEC AP*    CLOUDY    61  48  63 NE7G18    30.09R
FRANKLIN*      CLOUDY    62  51  65 N5        30.10S
US460-WAKEFLD  CLOUDY    62  53  72 VRB5      30.10S
$$

VAZ020-022-025-037-045-291700-
WEST CENTRAL AND SOUTHWEST VIRGINIA

CITY           SKY/WX    TMP DP  RH WIND       PRES   REMARKS
STAUNTON*      MOSUNNY   58  44  58 N7        30.16S
WAYNESBORO*    MOSUNNY   58  47  67 N8        30.13F
HOT SPRINGS VA MOSUNNY   52  37  58 W6        30.15S
LYNCHBURG      CLOUDY    64  48  56 SE5       30.11F
DANVILLE       MOSUNNY   67  53  61 VRB6      30.10F
SOUTH BOSTON*  PTSUNNY   65  51  61 CALM      30.10F
MARTINSVILLE   CLOUDY    67  48  51 CALM      30.13S
ROANOKE        MOSUNNY   67  46  47 N3        30.12F
BLACKSBURG     SUNNY     64  47  53 CALM      30.15S
DUBLIN*        SUNNY     63  47  56 CALM      30.14F
MARION*        SUNNY     64  49  58 E3        30.15F
HILLSVILLE*    PTSUNNY   62  50  64 SE3       30.12S
RICHLANDS*     PTSUNNY   56  48  73 N5        30.14F
WISE*          CLOUDY    59  48  67 NE3       30.15F
ABINGDON*      SUNNY     64  50  61 N3        30.11F
$$

MDZ021>025-VAZ099-100-291700-
SOUTHERN MARYLAND AND THE DELMARVA PENINSULA

CITY           SKY/WX    TMP DP  RH WIND       PRES   REMARKS
PATUXENT RIVER MOSUNNY   55  43  63 N18       30.11S
BAY BRIDGE APT SUNNY     54  37  54 N10       30.13F
LEONARDTOWN    SUNNY     55  41  58 N6        30.13S
DOVER          SUNNY     55  46  71 N14G22    30.10S
GEORGETOWN     MOSUNNY   56  41  57 N9G22     30.10F
EASTON         MOSUNNY   57  39  51 N9G17     30.15F
CAMBRIDGE      SUNNY     55  41  58 NW13      30.11S
SALISBURY      CLOUDY    54  43  66 N10       30.10S
OCEAN CITY     CLOUDY    53  41  63 N14       30.10S
WALLOPS ISLAND CLOUDY    57  44  62 N13       30.09S
ACCOMACK*      SUNNY     60  44  54 NW13      30.09S
$$

NCZ012>017-030>032-291700-
NORTH CENTRAL AND EASTERN NORTH CAROLINA

CITY           SKY/WX    TMP DP  RH WIND       PRES   REMARKS
ROANOKE RAPIDS PTSUNNY   63  54  72 N5        30.10S
RALEIGH        PTSUNNY   66  52  60 NE10G18   30.10S
ELIZABETH CITY SUNNY     64  49  57 NE15      30.09R
AHOSKIE*         N/A     63  51  65 N7        30.10S
EDENTON*       MOSUNNY   67  52  59 NE9       30.09S
CURRITUCK*     CLOUDY    60  48  65 N14       30.10S
KILL DEVIL HLS NOT AVBL
MANTEO         PTSUNNY   56  47  72 NE15      30.09S
CAPE HATTERAS  CLOUDY    56  49  77 NE10G22   30.07R
TARBORO*       NOT AVBL
GOLDSBORO      PTSUNNY   70  57  64 N10       30.08R
WASHINGTON     MOSUNNY   61  53  74 E5        30.10S
GREENVILLE     CLOUDY    64  54  68 NE7       30.11S
NEW BERN       PTSUNNY   64  57  78 NE14      30.10R
WILMINGTON     SUNNY     73  56  54 E12       30.05R
$$

VAZ048-291700-
ELSEWHERE

CITY           SKY/WX    TMP DP  RH WIND       PRES   REMARKS
HARRISBURG PA  SUNNY     53  33  46 NW14G26   30.16F
BALTIMORE      MOSUNNY   58  38  47 N8        30.12F
ANNAPOLIS      SUNNY     56  38  50 NW12      30.12F
ANDREWS AFB    SUNNY     59  38  45 N13G20    30.12S
PHILADELPHIA   MOSUNNY   54  33  45 NW14G22   30.12S
HENDERSON NC     N/A     64  50  61 E9        30.10S
GREENSBORO     PTSUNNY   65  52  62 E7        30.10S
ROCKY MOUNT    PTSUNNY   68  54  60 NE7       30.10R
$$

VAZ100-291700-
MARINE

STATION/POSITION TIME  TEMP    WIND        PRES    WAVE   SWELL
                       AIR SEA DIR/SP/G            HT/PER HT/PER
                 (UTC) (F)     (DEG/KT/KT) (MB)    (FT/S) (FT/S)
CAPE MAY NJ      1536   47 46  320/ 10/ 14 1019.2F
LEWES DE         1536   46 47  340/ 11/ 13 1019.8S
OCEAN-CITY-INLET 1536   48 44   20/  9/ 14 1019.8R
WACHAPREAGUE VA  1536   51 56   50/ 10/ 12 1018.9R
THOMAS POINT MD  1600   49 47   40/ 11/ 11   N/A
GOOSES REEF MD   1550   49      70/ 14/ 16 1020.5S
COVE POINT MD    1536   49      40/ 20/ 22 1020.4F
SOLOMONS ISLAND  1536   53 49   10/ 11/ 15   N/A
BISHOPS HEAD MD  1548   56 57   10/  8/ 12 1019.8F
PINEY POINT MD   1548           20/  9/ 13   N/A
POTOMAC MD       1550   52      20/ 16/ 19 1019.1R
CAMBRIDGE MD     1536   52 49  330/ 11/ 14 1019.2R
LEWISETTA VA     1536   54 52   50/  7/ 10 1019.6R
RAPPAHANNOCK LGT 1548          360/ 13/ 14 1020.0R
STINGRAY PT      1550   51      40/ 16/ 17 1019.7R
YORK RVR RNG VA  1536   55      30/ 16/ 17 1018.5S
YORKTOWN VA      1536   56 52   50/ 10/ 11 1018.8S
JAMESTOWN VA     1550   60      60/  2/  6   N/A
DOMINION TERM VA 1536   58      50/ 10/ 17 1019.4R
KIPTOPEKE VA     1548      51   70/  7/ 14   N/A
CHES BAY BRIDGE  1442   50 50   80/  4/  5 1018.6
CAPE HENRY VA    1536   52     330/  4/  4   N/A
WILLOUBY STN VA  1536   53      30/ 11/ 12 1020.3R
S CRANEY ISL VA  1536   56      30/ 14/ 21 1019.0R
CAPE HENRY BUOY  1542      50                N/A     3/10   2/11
CAPE CHARLES BUO 1551      50                N/A     3/10   2/11
OFFSHORE WE BUOY 1551      50                N/A     4/11   2/11
64NM E OF VA BCH 1550   49 47   10/ 17/ 19 1017.8R   6/10   3/10
DUCK PIER NC     1536   50 48   30/ 10/ 12 1018.4R
44100 DUCK FRF   1505      50                N/A     5/ 5   2/11
44056 DUCK FRF   1530      51                N/A     4/10   2/11
OREGON INLET NC  1536   52 58   10/ 10/ 14 1018.5R
HATTERAS NC      1536   53 61   20/ 19/ 25 1018.1R
DIAMOND SHLS NC  1550   56 73   20/ 21/ 23 1017.3R   6/10   3/10
CAPE LOOKOUT NC  1500   59      30/ 19/ 21 1017.6R
$$




USA.gov is the U.S. government's official web portal to all federal, state and local government web resources and services.